Regional Weather Roundup
Issued by NWS

Home | Current Version | Previous Version | Text Only | Print | Product List | Glossary Off
Versions: 1 2 3 4 5 6 7 8 9 10 11 12 13 14 15 16 17 18 19 20 21 22 23 24 25 26 27 28 29 30 31 32 33 34 35 36 37 38 39 40 41 42 43 44 45 46 47 48 49 50

000
ASUS43 KBIS 282202
RWRND

NORTH DAKOTA REGIONAL WEATHER ROUNDUP
NATIONAL WEATHER SERVICE BISMARCK ND
500 PM CDT SAT MAY 28 2016

NOTE: "FAIR" INDICATES FEW OR NO CLOUDS BELOW 12,000 FEET WITH NO
SIGNIFICANT WEATHER AND/OR OBSTRUCTIONS TO VISIBILITY.


NDZ001>003-009>011-017-282300-
NORTHWEST NORTH DAKOTA

CITY           SKY/WX    TMP DP  RH WIND       PRES   REMARKS
WILLISTON      CLOUDY    62  56  80 W6        29.89R
MINOT          PTSUNNY   71  52  50 VRB3      29.87F
MINOT AFB      PTSUNNY   65  53  64 VRB2      29.87F
$$

NDZ018>021-031>035-040>046-282300-
SOUTHWEST NORTH DAKOTA

CITY           SKY/WX    TMP DP  RH WIND       PRES   REMARKS
BISMARCK       PTSUNNY   70  54  56 VRB5      29.85F
DICKINSON      CLOUDY    63  51  65 CALM      29.88S
GARRISON         N/A     68  52  56 VRB7      29.87S
HETTINGER ARPT PTSUNNY   64  55  72 VRB5      29.92F
$$

NDZ004>008-012>016-024-026-027-054-282300-
NORTHEAST NORTH DAKOTA

CITY           SKY/WX    TMP DP  RH WIND       PRES   REMARKS
GRAND FORKS    LGT RAIN  67  58  72 E8        29.81S
GRND FRKS AFB  CLOUDY    68  56  64 VRB7      29.82S
DEVILS LAKE    MOSUNNY   67  56  67 N6        29.86S
$$

NDZ022-023-025-028>030-036>039-047>053-282300-
SOUTHEAST NORTH DAKOTA

CITY           SKY/WX    TMP DP  RH WIND       PRES   REMARKS
FARGO          CLOUDY    66  57  72 NE13      29.81S
JAMESTOWN      MOSUNNY   71  54  54 N6        29.83S
$$





USA.gov is the U.S. government's official web portal to all federal, state and local government web resources and services.